This is the latest recevied weather packets stored in our database for station/object I2HLY-4. If no packets are shown the sender has not sent any weather packets the latest 1 day(s).
| Time | Temp. | Humidity | Pressure | Rain* | Wind** | Luminosity | Snow |
|---|---|---|---|---|---|---|---|
| 1836274818 | 15.56° C | 84% | 1029.1 hPa | 0 mm | 0.89 m/s, 67° | - | - |
| 1836273915 | 15.56° C | 85% | 1029.2 hPa | 0 mm | 0.89 m/s, 85° | - | - |
| 1778028443 | 8.33° C | 98% | 1012.7 hPa | 4.06 mm | 0 m/s | - | - |
| 1778027534 | 8.33° C | 98% | 1012.8 hPa | 3.05 mm | 0 m/s | - | - |
| 1778026633 | 8.33° C | 98% | 1012.9 hPa | 5.08 mm | 0 m/s | - | - |
| 1778024843 | 8.33° C | 98% | 1013.1 hPa | 4.06 mm | 0 m/s | - | - |
| 1778023943 | 8.33° C | 98% | 1013.1 hPa | 3.05 mm | 0 m/s | - | - |
| 1778023045 | 8.33° C | 98% | 1013.2 hPa | 0 mm | 0 m/s | - | - |
| 1778022149 | 8.33° C | 98% | 1013.2 hPa | 0 mm | 0 m/s | - | - |
| 1778021250 | 8.33° C | 98% | 1013.2 hPa | 1.02 mm | 0.45 m/s, 91° | - | - |
| 1778020336 | 8.33° C | 98% | 1013.3 hPa | 1.02 mm | 0.45 m/s, 78° | - | - |
| 1778019436 | 8.33° C | 98% | 1013.4 hPa | 3.05 mm | 0 m/s | - | - |
| 1778018536 | 8.33° C | 98% | 1013.7 hPa | 5.08 mm | 0 m/s | - | - |
| 1778017639 | 8.33° C | 98% | 1013.7 hPa | 7.87 mm | 0 m/s | - | - |
| 1778016739 | 8.33° C | 97% | 1013.8 hPa | 10.92 mm | 0 m/s | - | - |
| 1778015842 | 8.33° C | 97% | 1013.9 hPa | 9.91 mm | 0.45 m/s, 101° | - | - |
| 1778014943 | 8.33° C | 98% | 1014 hPa | 6.1 mm | 0 m/s | - | - |
| 1778014038 | 8.33° C | 98% | 1014.2 hPa | 4.06 mm | 0 m/s | - | - |
| 1778013142 | 8.33° C | 98% | 1014.3 hPa | 2.03 mm | 0 m/s | - | - |
| 1778012242 | 8.33° C | 97% | 1014.1 hPa | 1.02 mm | 0 m/s | - | - |
| 1778011343 | 8.33° C | 97% | 1014.2 hPa | 1.02 mm | 0 m/s | - | - |
| 1778010441 | 8.33° C | 97% | 1014.1 hPa | 1.02 mm | 0 m/s | - | - |
| 1778009536 | 8.33° C | 97% | 1014.1 hPa | 0 mm | 0 m/s | - | - |
| 1778008639 | 8.33° C | 97% | 1014 hPa | 2.03 mm | 0.45 m/s, 128° | - | - |
| 1778007738 | 8.33° C | 97% | 1014 hPa | 2.03 mm | 0.45 m/s, 109° | - | - |
* Rain latest hour (hover to see other rain measurements)
** Current wind speed in m/s (hover to see current wind gust speed)